Das Wetter in  D-61279 Heinzenberg / Taunus





Wetter Minimum- & Maximum-Werte im Juni 2016

Standort: Heinzenberg / Taunus - Höhe 297 m         8° 24' 1" Ost 50° 21' 51" Nord
(   3-stündige Aktualisierung    letzte Aktualisierung um 20:46 am 30.06.2016  )


Messgrösse

Minimum

Maximum

Durchschnitt

Temperatur West /
Luftfeuchte West
Anklicken für Monats-Diagramm

5,9 °C

05:40
20.06.2016

37 %

16:03
29.06.2016

34,5 °C

15:53
23.06.2016

93 %

08:48
03.06.2016

Temp

17,0 °C

Feuchte

77 %

Temperatur Ost /
Luftfeuchte Ost
Anklicken für Monats-Diagramm

5,9 °C

06:00
20.06.2016

--

--
--

34,6 °C

15:58
23.06.2016

--

--
--

17,2 °C

--

Luftdruck Anklicken für Monats-Diagramm

998,1 hPa

16:19
14.06.2016

1025,5 hPa

02:55
20.06.2016

1013,5 hPa

Taupunkt

3,5 °C

05:15
20.06.2016

23,1 °C

12:34
24.06.2016

12,7 °C

Windchill
( gefühlte Temperatur )

2,9 °C

16:25
15.06.2016

34,5 °C

15:53
23.06.2016

16,2 °C

Windgeschwindigkeit /
Windrichtung
Anklicken für Monats-Diagramm

---

46,6 km/h / NW

13:59
24.06.2016

5,4 km/h
W-SW

Helligkeit /
Sonnenschein
Anklicken für Monats-Diagramm
Anklicken für Monats-Diagramm

Sonnenschein:

163:17 Stunden

Max: 14:20 Std am
23.06.2016

131 klux

14:23
13.06.2016

37 klux

Solarstrahlung Anklicken für Monats-Diagramm

---

896 W/m²

14:23
13.06.2016

270 W/m²

Regenmenge
    Juni 2016
Anklicken für Monats-Diagramm

Insgesamt 91,8 l/m²

in 60:23 Stunden
an 26 Tagen

13,7 l/m²

13:33
13.06.2016

Gesamtmenge

91,8 l/m²

Regen-Tage
    Juni 2016
Anklicken für Monats-Diagramm

>   0 mm/Tag

>   2 mm/Tag

>   5 mm/Tag

> 10 mm/Tag

> 20 mm/Tag

26 Tage     
10 Tage     
8 Tage     
3 Tage     
0 Tage     

Eisige Tage Juni 2016 / 2015

Tmin ≤ -10°C     

0 Tage

/

0 Tage

Eistage Juni 2016 / 2015

Tmax <     0°C     

0 Tage

/

0 Tage

Frosttage Juni 2016 / 2015

Tmin ≤     0°C     

0 Tage

/

0 Tage

Kalte Tage Juni 2016 / 2015

Tmax <   10°C     

0 Tage

/

0 Tage

Warme Tage Juni 2016 / 2015

Tmax ≥   20°C     

23 Tage

/

23 Tage

Sommertage Juni 2016 / 2015

Tmax ≥   25°C     

8 Tage

/

15 Tage

Heisse Tage Juni 2016 / 2015

Tmax ≥   30°C     

4 Tage

/

3 Tage


Monatsdiagramm Juni 2016

Die Kurven zeigen den Durchschnittswert des jeweiligen Tages an


Wetter-Monatsübersicht Juni 2016
Datum
  Temperatur
   Luftdruck
   Wind
  Regen
   Luftfeuchte
   Helligkeit

Sonnen-
schein

Ø
Temp.

Min.
Temp.

Max.
Temp.

Ø
Luftdruck

Min.
Luftdruck

Max.
Luftdruck

Ø-Geschw.
Haupt-Richtg.

Max.
Wind

Menge /
Dauer

Ø
Feuchte

Min.
Feuchte

Max.
Feuchte

Ø
Helligkeit

Max.
Helligkeit

1.
Juni
14,5 °C12,6 °C
03:56
15,9 °C
14:01
1012,2 hPa1009,0 hPa
23:12
1013,4 hPa
03:56
5,2 km/h
W
23,1 km/h
14:06  
11,1 l/m²
6:50 Stunden
88 %80 %
00:02
91 %
17:36
9,6 klux39,3 klux
13:41
--- 
2.
Juni
16,9 °C14,5 °C
04:12
22,8 °C
15:02
1009,5 hPa1008,1 hPa
15:07
1011,0 hPa
23:43
2,9 km/h
SO
19,8 km/h
14:32  
6,1 l/m²
4:20 Stunden
85 %62 %
15:27
92 %
04:57
26,7 klux123,0 klux
13:32
2:00 Std 
3.
Juni
16,2 °C13,3 °C
06:33
20,8 °C
16:13
1010,7 hPa1009,5 hPa
16:43
1012,3 hPa
08:33
1,1 km/h
NW
12,9 km/h
14:18  
1,5 l/m²
2:05 Stunden
89 %75 %
16:23
93 %
08:48
23 klux116 klux
15:53
46 Min 
4.
Juni
18,0 °C12,0 °C
05:49
25,3 °C
17:39
1011,6 hPa1009,9 hPa
17:44
1013,9 hPa
23:55
1,7 km/h
O-NO
17,8 km/h
12:19  
0,3 l/m²
1:00 Stunden
80 %55 %
17:44
93 %
08:09
40 klux121 klux
14:39
5:50 Std 
5.
Juni
19,0 °C13,5 °C
06:55
29,3 °C
15:30
1015,7 hPa1013,6 hPa
15:30
1019,3 hPa
23:56
2,4 km/h
NW
18,8 km/h
14:55  
0,2 l/m²
20 Minuten
77 %42 %
15:20
92 %
09:35
38 klux110 klux
12:25
5:20 Std 
6.
Juni
19,8 °C11,8 °C
05:51
31,3 °C
15:26
1018,9 hPa1017,1 hPa
18:06
1020,2 hPa
23:56
1,9 km/h
NW
16,3 km/h
18:30  
4,9 l/m²
35 Minuten
74 %39 %
14:31
89 %
07:56
53 klux111 klux
12:11
12:04 Std 
7.
Juni
21,2 °C12,5 °C
06:02
30,6 °C
15:02
1019,9 hPa1017,6 hPa
16:42
1021,7 hPa
06:02
1,9 km/h
SO
18,0 km/h
16:12  
---
5 Minuten
67 %38 %
13:02
89 %
08:12
54 klux105 klux
13:42
10:56 Std 
8.
Juni
17,5 °C13,6 °C
06:33
24,0 °C
14:58
1018,5 hPa1016,3 hPa
15:08
1020,4 hPa
08:23
2,6 km/h
NW
27,1 km/h
15:08  
0,6 l/m²
2:01 Stunden
79 %62 %
15:08
88 %
09:38
28 klux110 klux
14:28
4:20 Std 
9.
Juni
16,4 °C9,5 °C
06:24
24,3 °C
15:54
1017,2 hPa1014,8 hPa
20:54
1019,0 hPa
06:24
3,2 km/h
NW
17,3 km/h
12:39  
0,2 l/m²
15 Minuten
69 %43 %
17:04
89 %
07:54
54 klux120 klux
13:39
10:00 Std 
10.
Juni
16,7 °C8,7 °C
06:15
25,0 °C
17:55
1012,8 hPa1009,3 hPa
19:30
1016,5 hPa
01:10
4,2 km/h
W
18,9 km/h
17:00  
---
10 Minuten
66 %42 %
15:45
86 %
07:50
55 klux116 klux
14:40
12:10 Std 
11.
Juni
16,6 °C10,4 °C
06:06
22,0 °C
17:46
1009,8 hPa1008,2 hPa
17:46
1011,5 hPa
03:01
1,6 km/h
SO
20,0 km/h
18:36  
---
69 %56 %
13:36
82 %
07:31
32 klux78 klux
13:06
1:30 Std 
12.
Juni
15,5 °C13,2 °C
23:58
20,7 °C
12:52
1008,2 hPa1006,7 hPa
19:07
1010,1 hPa
02:17
2,7 km/h
NW
19,1 km/h
14:17  
6,8 l/m²
8:15 Stunden
84 %69 %
12:52
90 %
09:17
26,0 klux124,0 klux
13:17
2:10 Std 
13.
Juni
14,6 °C12,6 °C
23:59
17,9 °C
12:03
1002,7 hPa1000,4 hPa
14:38
1007,2 hPa
00:33
4,3 km/h
W-SW
44,8 km/h
16:28  
13,7 l/m²
8:56 Stunden
88 %80 %
16:28
91 %
07:43
23 klux131 klux
14:23
1:25 Std 
14.
Juni
15,0 °C12,2 °C
05:59
19,6 °C
16:19
1000,2 hPa998,1 hPa
16:19
1002,1 hPa
00:44
4,6 km/h
W-SW
21,9 km/h
17:29  
12,5 l/m²
2:40 Stunden
83 %66 %
16:14
91 %
02:09
32 klux109 klux
14:04
3:44 Std 
15.
Juni
14,0 °C10,8 °C
23:56
17,8 °C
14:25
1000,5 hPa998,9 hPa
04:45
1003,3 hPa
23:56
4,7 km/h
W-SW
33,5 km/h
16:10  
7,0 l/m²
3:05 Stunden
82 %70 %
14:20
92 %
17:15
31 klux124 klux
12:50
4:40 Std 
16.
Juni
12,8 °C7,5 °C
06:01
17,0 °C
14:16
1003,0 hPa1001,6 hPa
19:26
1003,9 hPa
11:21
0,9 km/h
O-SO
16,0 km/h
14:41  
0,5 l/m²
50 Minuten
85 %76 %
13:46
91 %
08:26
20 klux79 klux
13:16
25 Min 
17.
Juni
14,2 °C11,0 °C
04:47
20,8 °C
15:02
1006,4 hPa1002,0 hPa
00:02
1012,4 hPa
23:53
11,9 km/h
W-SW
37,1 km/h
15:27  
0,9 l/m²
1:29 Stunden
81 %58 %
15:22
91 %
05:47
41,4 klux121,0 klux
14:12
5:45 Std 
18.
Juni
14,8 °C10,1 °C
03:23
21,6 °C
15:53
1015,5 hPa1012,4 hPa
00:03
1019,6 hPa
23:59
8,9 km/h
W-NW
39,7 km/h
14:58  
---
5 Minuten
77 %55 %
15:48
88 %
04:37
41 klux122 klux
14:38
5:55 Std 
19.
Juni
13,7 °C10,3 °C
23:55
17,3 °C
15:29
1022,6 hPa1019,6 hPa
00:04
1025,1 hPa
23:55
6,9 km/h
NW
32,8 km/h
13:34  
---
76 %62 %
15:29
87 %
05:24
26 klux102 klux
15:29
3:06 Std 
20.
Juni
14,2 °C5,9 °C
05:40
22,4 °C
14:30
1020,8 hPa1015,9 hPa
19:55
1025,5 hPa
02:55
9,4 km/h
W-SW
31,8 km/h
14:35  
9,1 l/m²
4:11 Stunden
71 %46 %
14:10
89 %
08:30
48 klux116 klux
13:20
8:25 Std 
21.
Juni
17,6 °C14,1 °C
00:01
22,1 °C
14:56
1019,4 hPa1017,3 hPa
03:36
1022,2 hPa
23:26
9,1 km/h
W-SW
22,7 km/h
15:06  
0,6 l/m²
1:35 Stunden
80 %66 %
14:46
89 %
02:06
32 klux121 klux
12:16
2:00 Std 
22.
Juni
20,9 °C16,5 °C
02:51
26,1 °C
14:11
1022,3 hPa1021,2 hPa
19:06
1023,1 hPa
07:36
3,3 km/h
W-SW
16,6 km/h
08:31  
---
76 %60 %
14:11
88 %
07:16
38 klux128 klux
13:11
6:05 Std 
23.
Juni
25,0 °C14,7 °C
06:43
34,5 °C
15:53
1018,3 hPa1014,2 hPa
19:38
1022,4 hPa
02:58
7,1 km/h
SO
26,5 km/h
14:38  
---
64 %38 %
18:33
90 %
07:13
60 klux104 klux
13:13
14:20 Std 
24.
Juni
23,1 °C17,6 °C
05:54
33,9 °C
13:34
1015,8 hPa1013,1 hPa
13:34
1017,5 hPa
15:09
4,6 km/h
NW
46,6 km/h
13:59  
2,0 l/m²
40 Minuten
75 %50 %
13:34
89 %
15:29
49 klux115 klux
13:29
10:20 Std 
25.
Juni
17,6 °C13,5 °C
22:10
21,6 °C
14:20
1013,8 hPa1011,3 hPa
14:20
1017,5 hPa
22:56
7,4 km/h
W
36,5 km/h
17:50  
8,5 l/m²
4:45 Stunden
88 %82 %
14:20
91 %
10:30
16 klux74 klux
14:15
15 Min 
26.
Juni
15,5 °C9,6 °C
06:26
23,0 °C
16:56
1017,7 hPa1016,3 hPa
16:56
1019,6 hPa
23:57
9,0 km/h
W
29,5 km/h
18:21  
0,2 l/m²
40 Minuten
74 %48 %
16:36
91 %
07:31
49,9 klux123,0 klux
15:16
9:20 Std 
27.
Juni
14,4 °C9,3 °C
05:52
18,5 °C
12:22
1019,5 hPa1018,0 hPa
17:42
1020,8 hPa
08:02
9,0 km/h
W-SW
34,0 km/h
11:52  
1,1 l/m²
1:25 Stunden
80 %65 %
12:12
88 %
07:12
31 klux118 klux
12:12
3:35 Std 
28.
Juni
17,8 °C13,6 °C
05:18
22,8 °C
17:48
1016,5 hPa1012,6 hPa
21:03
1019,5 hPa
06:53
4,1 km/h
W-SW
22,8 km/h
19:13  
3,2 l/m²
1:20 Stunden
78 %59 %
18:38
90 %
05:28
36 klux123 klux
15:28
3:46 Std 
29.
Juni
19,1 °C14,0 °C
23:55
23,8 °C
16:03
1012,2 hPa1010,9 hPa
04:09
1013,3 hPa
14:04
15,6 km/h
W-SW
41,6 km/h
13:54  
---
15 Minuten
63 %37 %
16:03
81 %
03:34
53 klux114 klux
13:14
10:00 Std 
30.
Juni
17,4 °C12,5 °C
02:00
22,6 °C
16:55
1013,4 hPa1012,2 hPa
05:35
1014,8 hPa
23:51
9,1 km/h
W-SW
33,2 km/h
14:45  
1,1 l/m²
2:31 Stunden
75 %59 %
17:00
86 %
07:40
33 klux127 klux
12:50
3:05 Std 



Juni
2016

Temperatur

  

Luftdruck

  

Wind

  

Regen

  

Luftfeuchte

  

Helligkeit

Sonnen-
schein

Ø

Min

Max

Ø

Min

Max

Ø

Max

Max

Ø

Min

Max

Ø

Max

Max

17,0 °C

5,9 °C

05:40 Uhr
20.06.2016

34,5 °C

15:53 Uhr
23.06.2016

1013,5 hPa

998,1 hPa

16:19 Uhr
14.06.2016

1025,5 hPa

02:55 Uhr
20.06.2016

5,4 km/h

W-SW

46,6 km/h

13:59 Uhr
24.06.2016

13,7 l/m²

8:56 Stunden
13.06.2016

77 %

37 %

16:03 Uhr
29.06.2016

93 %

08:48 Uhr
03.06.2016

37 klux

131,0 klux

14:23 Uhr
13.06.2016

14:20 Std

am
23.06.2016

Gesamt

Gesamt

91,8 l/m²

26 Tage
60:23 h

163:17 Std


Wetter-Diagramme Juni 2016     Heinzenberg / Taunus   
TemperaturLuftfeuchte
SolarstrahlungLuftdruck
HelligkeitSonnenschein
RegenmengeRegendauer
Wind-GeschwindigkeitWind-Richtung